GW1075 Weather Reports


Display with metric or nautical units.
time (UTC)temp
F
wind
direction
speed
MPH
gust
MPH
rain 1hr
in
rain 24hr
in
rain mn
in
humidity
%
barometer
mb
20260506033502 71 289 2.0 5.0 0.00 0.10 0.10 72 1009.1
20260506033002 71 15 2.0 9.0 0.00 0.10 0.10 72 1009.0
20260506032502 71 40 2.0 9.0 0.00 0.10 0.10 72 1009.0
20260506032005 71 96 1.0 6.0 0.00 0.10 0.10 72 1008.9
20260506031506 71 38 1.0 5.0 0.00 0.10 0.10 71 1008.7
20260506031004 72 352 1.0 5.0 0.00 0.10 0.10 71 1008.8
20260506030507 72 53 2.0 6.0 0.00 0.10 0.10 71 1008.8
20260506030024 72 346 1.0 6.0 0.00 0.10 0.10 70 1008.8
20260506025506 73 272 1.0 4.0 0.00 0.10 0.10 69 1008.5
20260506025007 73 307 1.0 5.0 0.00 0.10 0.10 69 1008.4
20260506024537 73 360 1.0 6.0 0.00 0.10 0.10 68 1008.1
20260506024009 73 339 2.0 5.0 0.00 0.10 0.10 68 1008.1
20260506023503 73 350 2.0 5.0 0.00 0.10 0.10 68 1007.9
20260506023010 74 55 1.0 8.0 0.00 0.10 0.10 68 1007.6
20260506022504 74 20 2.0 8.0 0.00 0.10 0.10 69 1007.6
20260506022002 74 42 1.0 5.0 0.00 0.10 0.10 69 1007.2
20260506021503 74 21 1.0 5.0 0.00 0.10 0.10 69 1007.0
20260506021006 74 74 1.0 5.0 0.00 0.10 0.10 69 1007.0
20260506020502 74 32 1.0 6.0 0.00 0.10 0.10 68 1007.0
20260506020010 74 287 1.0 6.0 0.00 0.10 0.10 68 1007.1
20260506015506 74 350 1.0 5.0 0.00 0.10 0.10 69 1006.8
20260506015007 74 352 1.0 5.0 0.00 0.10 0.10 69 1006.9
20260506014516 75 352 1.0 4.0 0.00 0.10 0.10 70 1007.0
20260506014006 75 46 2.0 4.0 0.00 0.10 0.10 70 1006.8
20260506013511 75 360 0.0 9.0 0.00 0.10 0.10 70 1006.5
20260506013032 76 23 2.0 9.0 0.00 0.10 0.10 69 1006.4
20260506012508 76 15 1.0 5.0 0.00 0.10 0.10 70 1006.5
20260506012004 76 46 1.0 5.0 0.00 0.10 0.10 69 1006.7
20260506011503 76 312 1.0 5.0 0.00 0.10 0.10 69 1006.8
20260506011007 77 86 1.0 4.0 0.00 0.10 0.10 70 1006.3
20260506010502 76 156 0.0 4.0 0.00 0.10 0.10 72 1006.0
20260506010010 76 26 1.0 4.0 0.04 0.10 0.10 74 1006.1
20260506005503 76 56 0.0 2.0 0.08 0.10 0.10 76 1005.6
20260506005006 76 360 1.0 2.0 0.10 0.10 0.10 74 1005.9
20260506004512 76 341 0.0 2.0 0.10 0.10 0.10 73 1005.9
20260506004008 75 317 1.0 2.0 0.10 0.10 0.10 75 1005.9
20260506003506 76 315 0.0 3.0 0.10 0.10 0.10 75 1006.0
20260506003017 76 67 0.0 7.0 0.10 0.10 0.10 74 1005.8
20260506002508 77 352 2.0 7.0 0.10 0.10 0.10 72 1006.0
20260506002010 77 344 1.0 10.0 0.10 0.10 0.10 75 1005.9
20260506001521 77 275 3.0 10.0 0.10 0.10 0.10 75 1005.8
20260506001009 78 310 1.0 2.0 0.10 0.10 0.10 82 1005.9
20260506000505 79 352 0.0 2.0 0.10 0.10 0.10 79 1005.5
20260506000007 82 54 1.0 5.0 0.06 0.06 0.06 76 1005.3
20260505235502 84 325 1.0 5.0 0.02 0.02 0.02 66 1005.3
20260505235005 84 153 1.0 4.0 0.00 0.00 0.00 55 1004.7
20260505234512 85 11 1.0 8.0 0.00 0.00 0.00 67 1005.0
20260505234008 85 27 1.0 8.0 0.00 0.00 0.00 67 1005.1
20260505233505 85 320 1.0 10.0 0.00 0.00 0.00 66 1004.8
20260505233020 85 170 4.0 10.0 0.00 0.00 0.00 65 1004.7
20260505232511 86 139 4.0 9.0 0.00 0.00 0.00 64 1004.8
20260505232007 87 147 2.0 10.0 0.00 0.00 0.00 63 1004.7
20260505231519 88 292 3.0 10.0 0.00 0.00 0.00 62 1004.6
20260505231009 89 171 2.0 9.0 0.00 0.00 0.00 61 1004.7
20260505230508 89 168 3.0 8.0 0.00 0.00 0.00 60 1004.5
20260505230040 90 167 3.0 8.0 0.00 0.00 0.00 58 1004.5
20260505225511 90 154 2.0 8.0 0.00 0.00 0.00 58 1004.4
20260505225003 89 150 2.0 6.0 0.00 0.00 0.00 58 1004.5
20260505224509 89 273 1.0 9.0 0.00 0.00 0.00 58 1004.5
20260505224011 90 111 2.0 9.0 0.00 0.00 0.00 56 1004.6
20260505223505 91 150 3.0 8.0 0.00 0.00 0.00 51 1004.6
20260505223012 91 178 2.0 8.0 0.00 0.00 0.00 54 1004.4
20260505222506 91 254 2.0 8.0 0.00 0.00 0.00 51 1004.4
20260505222009 90 246 1.0 9.0 0.00 0.00 0.00 52 1004.5
20260505221516 91 230 2.0 9.0 0.00 0.00 0.00 51 1004.6
20260505221006 91 157 2.0 9.0 0.00 0.00 0.00 50 1004.6
20260505220506 91 242 1.0 9.0 0.00 0.00 0.00 52 1004.5
20260505220023 91 316 1.0 6.0 0.00 0.00 0.00 51 1004.3
20260505215509 92 199 1.0 8.0 0.00 0.00 0.00 50 1004.5
20260505215009 91 180 1.0 8.0 0.00 0.00 0.00 49 1004.6
20260505214524 91 294 1.0 6.0 0.00 0.00 0.00 50 1004.6
20260505214006 91 148 2.0 9.0 0.00 0.00 0.00 49 1004.6
20260505213506 91 133 3.0 9.0 0.00 0.00 0.00 51 1004.6
20260505213009 91 231 3.0 9.0 0.00 0.00 0.00 50 1004.7
20260505212509 91 329 2.0 7.0 0.00 0.00 0.00 50 1004.6
20260505212007 92 105 2.0 6.0 0.00 0.00 0.00 51 1004.7
20260505211514 91 46 2.0 7.0 0.00 0.00 0.00 51 1004.8
20260505211007 90 194 2.0 7.0 0.00 0.00 0.00 51 1004.8
20260505210506 91 217 2.0 9.0 0.00 0.00 0.00 51 1004.9
20260505210020 91 307 2.0 11.0 0.00 0.00 0.00 52 1004.9
20260505205507 91 350 2.0 12.0 0.00 0.00 0.00 51 1005.0
20260505205013 92 290 3.0 14.0 0.00 0.00 0.00 52 1005.0
20260505204525 90 360 2.0 14.0 0.00 0.00 0.00 53 1005.1
20260505204010 89 260 2.0 10.0 0.00 0.00 0.00 53 1005.3
20260505203510 90 290 3.0 10.0 0.00 0.00 0.00 51 1005.3
20260505203040 91 296 2.0 7.0 0.00 0.00 0.00 52 1005.2
20260505202503 91 273 2.0 11.0 0.00 0.00 0.00 54 1005.3
20260505202008 90 360 2.0 13.0 0.00 0.00 0.00 53 1005.3
20260505201513 90 219 3.0 13.0 0.00 0.00 0.00 53 1005.4
20260505201007 90 265 2.0 10.0 0.00 0.00 0.00 55 1005.4
20260505200506 89 178 2.0 11.0 0.00 0.00 0.00 56 1005.5
20260505200027 89 101 3.0 11.0 0.00 0.00 0.00 56 1005.5
20260505195506 89 293 3.0 12.0 0.00 0.00 0.00 56 1005.4
20260505195008 89 230 3.0 12.0 0.00 0.00 0.00 60 1005.4
20260505194523 89 140 3.0 9.0 0.00 0.00 0.00 58 1005.4
20260505194009 88 240 2.0 9.0 0.00 0.00 0.00 59 1005.6
20260505193509 87 105 3.0 10.0 0.00 0.00 0.00 58 1005.6
20260505193023 87 174 3.0 10.0 0.00 0.00 0.00 59 1005.5
20260505192507 87 171 2.0 11.0 0.00 0.00 0.00 58 1005.6
20260505192004 87 270 2.0 11.0 0.00 0.00 0.00 59 1005.7
20260505191512 87 212 4.0 10.0 0.00 0.00 0.00 61 1005.5
20260505191008 87 257 2.0 11.0 0.00 0.00 0.00 61 1005.5
20260505190511 87 119 4.0 11.0 0.00 0.00 0.00 61 1005.6
20260505190021 86 276 3.0 11.0 0.00 0.00 0.00 62 1005.6
20260505185511 86 274 2.0 11.0 0.00 0.00 0.00 62 1005.7
20260505185006 85 216 3.0 9.0 0.00 0.00 0.00 64 1005.7
20260505184524 85 253 3.0 10.0 0.00 0.00 0.00 64 1005.7
20260505184009 84 159 2.0 10.0 0.00 0.00 0.00 64 1005.9
20260505183509 84 165 4.0 10.0 0.00 0.00 0.00 65 1006.1
20260505183026 84 219 2.0 10.0 0.00 0.00 0.00 66 1006.0
20260505182502 84 279 1.0 10.0 0.00 0.00 0.00 66 1005.9
20260505182006 83 264 2.0 8.0 0.00 0.00 0.00 65 1006.0
20260505181508 84 111 3.0 8.0 0.00 0.00 0.00 65 1006.0
20260505181006 84 148 2.0 7.0 0.00 0.00 0.00 65 1006.0
20260505180510 83 221 2.0 8.0 0.00 0.00 0.00 65 1006.0
20260505180011 83 157 2.0 9.0 0.00 0.00 0.00 67 1006.2
20260505175510 83 179 2.0 9.0 0.00 0.00 0.00 66 1006.1
20260505175008 84 155 2.0 10.0 0.00 0.00 0.00 65 1006.0
20260505174518 83 217 2.0 10.0 0.00 0.00 0.00 65 1006.1
20260505174007 83 173 3.0 7.0 0.00 0.00 0.00 65 1006.1
20260505173514 84 42 2.0 12.0 0.00 0.00 0.00 65 1006.1
20260505173036 83 292 3.0 12.0 0.00 0.00 0.00 66 1006.0
20260505172507 83 264 2.0 11.0 0.00 0.00 0.00 67 1006.0
20260505172012 82 238 3.0 10.0 0.00 0.00 0.00 65 1006.1
20260505171506 82 198 3.0 13.0 0.00 0.00 0.00 66 1006.1
20260505171005 82 165 4.0 13.0 0.00 0.00 0.00 66 1006.1
20260505170505 82 252 4.0 17.0 0.00 0.00 0.00 66 1006.2
20260505170013 82 241 4.0 17.0 0.00 0.00 0.00 66 1006.2
20260505165506 82 82 2.0 11.0 0.00 0.00 0.00 68 1006.2
20260505165007 80 315 2.0 12.0 0.00 0.00 0.00 69 1006.1
20260505164535 81 245 4.0 12.0 0.00 0.00 0.00 68 1006.2
20260505164008 81 336 4.0 10.0 0.00 0.00 0.00 68 1006.2
20260505163508 80 169 3.0 9.0 0.00 0.00 0.00 1006.2
20260505163023 80 223 4.0 11.0 0.00 0.00 0.00 68 1006.3
20260505162508 81 152 3.0 16.0 0.00 0.00 0.00 68 1006.1
20260505162012 81 259 5.0 12.0 0.00 0.00 0.00 68 1006.1
20260505161526 80 168 4.0 11.0 0.00 0.00 0.00 69 1005.9
20260505161010 80 210 4.0 12.0 0.00 0.00 0.00 70 1005.9
20260505160508 79 172 4.0 12.0 0.00 0.00 0.00 70 1006.0
20260505153022 78 171 3.0 13.0 0.00 0.00 0.00 72 1006.0
20260505152508 78 54 3.0 13.0 0.00 0.00 0.00 72 1006.1
20260505152009 78 99 2.0 13.0 0.00 0.00 0.00 74 1006.1
20260505151524 77 171 3.0 13.0 0.00 0.00 0.00 74 1006.2
20260505151009 77 260 4.0 13.0 0.00 0.00 0.00 74 1006.2
20260505150510 77 202 2.0 9.0 0.00 0.00 0.00 74 1006.2
20260505140511 74 349 2.0 9.0 0.00 0.00 0.00 78 1006.2
20260505125015 72 179 2.0 10.0 0.00 0.00 0.00 82 1005.6
20260505124530 71 224 2.0 10.0 0.00 0.00 0.00 82 1005.7
20260505124017 71 157 2.0 6.0 0.00 0.00 0.00 82 1005.6
20260505123514 71 270 1.0 8.0 0.00 0.00 0.00 82 1005.5
20260505123025 71 198 3.0 8.0 0.00 0.00 0.00 82 1005.4
20260505122511 71 239 1.0 10.0 0.00 0.00 0.00 82 1005.2
20260505122013 71 167 2.0 10.0 0.00 0.00 0.00 82 1005.1
20260505121518 71 271 2.0 9.0 0.00 0.00 0.00 82 1005.0
20260505121007 71 331 3.0 9.0 0.00 0.00 0.00 83 1005.2
20260505120508 71 180 3.0 8.0 0.00 0.00 0.00 83 1005.2
20260505120023 71 172 1.0 10.0 0.00 0.00 0.00 83 1005.2
20260505115511 71 115 2.0 10.0 0.00 0.00 0.00 83 1005.1
20260505115012 71 166 3.0 12.0 0.00 0.00 0.00 83 1005.0
20260505114533 71 170 4.0 12.0 0.00 0.00 0.00 83 1004.9
20260505114009 71 345 2.0 9.0 0.00 0.00 0.00 83 1004.9
20260505113509 71 271 2.0 7.0 0.00 0.00 0.00 83 1005.0
20260505113028 70 206 3.0 7.0 0.00 0.00 0.00 83 1005.0
20260505112509 70 166 1.0 6.0 0.00 0.00 0.00 83 1004.8
20260505112010 70 225 2.0 13.0 0.00 0.00 0.00 83 1004.9
20260505111532 71 192 1.0 13.0 0.00 0.00 0.00 83 1004.9
20260505111011 71 272 1.0 8.0 0.00 0.00 0.00 83 1005.0
20260505110507 70 193 3.0 8.0 0.00 0.00 0.00 83 1005.0
20260505102006 71 268 2.0 13.0 0.00 0.00 0.00 82 1004.8
20260505101512 71 163 3.0 13.0 0.00 0.00 0.00 82 1004.8
20260505101006 71 178 4.0 10.0 0.00 0.00 0.00 82 1005.1
20260505100507 71 128 2.0 9.0 0.00 0.00 0.00 82 1005.1
20260505100021 71 154 2.0 10.0 0.00 0.00 0.00 82 1005.1
20260505095510 71 312 2.0 10.0 0.00 0.00 0.00 82 1005.0
20260505095009 71 131 2.0 11.0 0.00 0.00 0.00 82 1005.1
20260505094524 71 178 2.0 12.0 0.00 0.00 0.00 82 1005.2
20260505094014 71 178 4.0 11.0 0.00 0.00 0.00 82 1005.1
20260505093510 71 140 3.0 10.0 0.00 0.00 0.00 81 1005.2
20260505093027 71 155 2.0 6.0 0.00 0.00 0.00 82 1005.4
20260505092512 71 179 2.0 10.0 0.00 0.00 0.00 82 1005.3
20260505092012 71 144 4.0 10.0 0.00 0.00 0.00 82 1005.4
20260505091534 71 207 1.0 10.0 0.00 0.00 0.00 82 1005.4
20260505091009 71 181 4.0 9.0 0.00 0.00 0.00 82 1005.4
20260505090508 71 260 2.0 11.0 0.00 0.00 0.00 82 1005.5
20260505090024 71 209 3.0 11.0 0.00 0.00 0.00 82 1005.5
20260505085509 71 135 1.0 9.0 0.00 0.00 0.00 82 1005.5
20260505085007 71 163 3.0 9.0 0.00 0.00 0.00 82 1005.5
20260505084530 71 183 4.0 9.0 0.00 0.00 0.00 82 1005.4
20260505084010 71 317 2.0 13.0 0.00 0.00 0.00 82 1005.4
20260505083511 71 129 2.0 13.0 0.00 0.00 0.00 82 1005.4
20260505083035 71 122 2.0 11.0 0.00 0.00 0.00 82 1005.4
20260505082510 70 247 4.0 13.0 0.00 0.00 0.00 82 1005.5
20260505082012 70 152 4.0 13.0 0.00 0.00 0.00 82 1005.5
20260505081545 70 152 4.0 12.0 0.00 0.00 0.00 82 1005.6
20260505081010 70 201 3.0 10.0 0.00 0.00 0.00 82 1005.6
20260505080508 71 254 2.0 11.0 0.00 0.00 0.00 81 1005.6
20260505080038 71 171 3.0 11.0 0.00 0.00 0.00 81 1005.6
20260505075507 71 278 3.0 10.0 0.00 0.00 0.00 81 1005.7
20260505075007 71 197 3.0 8.0 0.00 0.00 0.00 81 1005.8
20260505074521 71 242 3.0 11.0 0.00 0.00 0.00 81 1005.8
20260505074007 71 180 3.0 11.0 0.00 0.00 0.00 80 1005.9
20260505073510 71 210 3.0 8.0 0.00 0.00 0.00 80 1006.0
20260505073025 71 223 3.0 8.0 0.00 0.00 0.00 80 1006.1
20260505072504 71 167 3.0 14.0 0.00 0.00 0.00 80 1006.1
20260505072007 71 215 2.0 14.0 0.00 0.00 0.00 79 1006.3
20260505071512 71 109 2.0 13.0 0.00 0.00 0.00 79 1006.4
20260505071006 71 156 3.0 13.0 0.00 0.00 0.00 79 1006.6
20260505070508 71 183 3.0 9.0 0.00 0.00 0.00 79 1006.7
20260505070012 71 282 3.0 13.0 0.00 0.00 0.00 79 1006.5
20260505065507 71 242 4.0 14.0 0.00 0.00 0.00 78 1006.5
20260505065002 72 152 4.0 14.0 0.00 0.00 0.00 78 1006.7
20260505064504 72 112 2.0 9.0 0.00 0.00 0.00 78 1006.7
20260505064003 72 187 3.0 10.0 0.00 0.00 0.00 78 1006.9
20260505063503 72 114 1.0 10.0 0.00 0.00 0.00 78 1006.8
20260505063005 72 135 3.0 7.0 0.00 0.00 0.00 77 1006.9
20260505062503 72 155 2.0 7.0 0.00 0.00 0.00 77 1006.8
20260505062003 72 223 2.0 7.0 0.00 0.00 0.00 77 1006.8
20260505061522 72 181 3.0 11.0 0.00 0.00 0.00 77 1006.9
20260505061007 72 161 3.0 11.0 0.00 0.00 0.00 76 1006.9
20260505060509 72 78 2.0 10.0 0.00 0.00 0.00 76 1006.8
20260505060013 72 256 1.0 9.0 0.00 0.00 0.00 76 1007.0
20260505055510 72 298 2.0 7.0 0.00 0.00 0.00 76 1006.8
20260505055007 72 276 3.0 9.0 0.00 0.00 0.00 76 1006.8
20260505054522 72 155 2.0 10.0 0.00 0.00 0.00 76 1006.9
20260505054003 72 127 2.0 10.0 0.00 0.00 0.00 76 1006.9
20260505053503 72 186 2.0 8.0 0.00 0.00 0.00 76 1006.9
20260505053003 72 146 2.0 10.0 0.00 0.00 0.00 75 1007.0
20260505052505 72 159 3.0 10.0 0.00 0.00 0.00 75 1007.0
20260505052003 72 115 2.0 9.0 0.00 0.00 0.00 75 1007.1
20260505051503 72 194 3.0 9.0 0.00 0.00 0.00 75 1007.1
20260505051003 72 188 2.0 10.0 0.00 0.00 0.00 75 1007.2
20260505050504 72 143 2.0 10.0 0.00 0.00 0.00 75 1007.1
20260505041504 73 175 3.0 11.0 0.00 0.00 0.00 72 1007.4
20260505041003 73 161 3.0 9.0 0.00 0.00 0.00 72 1007.5
20260505040504 73 157 1.0 10.0 0.00 0.00 0.00 72 1007.4
20260505040009 73 150 1.0 10.0 0.00 0.00 0.00 72 1007.5
20260505035506 73 174 2.0 9.0 0.00 0.00 0.00 72 1007.5
20260505035005 73 344 1.0 10.0 0.00 0.00 0.00 71 1007.4
20260505034517 73 162 2.0 10.0 0.00 0.00 0.00 71 1007.3
20260505034006 73 170 2.0 7.0 0.00 0.00 0.00 71 1007.3